Wind_Speed
37 37 37 38 38 38 39 40 41 42 42 42 42 42 42 40 39 38 38 38 37 38 36 36 37 36 34 32 31 30 30 29 28 28 27 26 25 25 25 26 27 27 28
37 37 37 37 37 37 37 38 39 39 40 39 39 39 38 37 36 35 35 34 33 32 32 33 33 33 32 32 31 30 28 27 27 27 26 26 25 25 25 26 26 27 28
38 37 36 36 35 35 35 35 36 36 36 36 36 35 34 33 32 32 30 29 27 26 26 27 29 30 29 29 27 27 26 26 25 24 23 23 24 24 24 25 26 27 28
37 37 36 36 35 34 33 33 33 32 32 32 31 30 29 27 27 25 24 25 25 23 23 24 26 27 27 27 26 25 24 24 22 21 21 22 22 23 24 25 26 27 28
38 37 36 35 34 33 32 31 30 29 29 28 26 25 24 24 22 22 22 22 22 22 22 22 23 24 25 25 24 22 21 20 19 19 20 20 21 22 22 23 25 26 28
37 36 35 34 33 31 30 29 28 27 26 24 22 21 21 21 20 19 18 19 20 21 21 21 23 22 22 22 20 18 18 17 17 18 18 18 19 19 21 22 24 25 27
37 36 34 33 32 30 29 28 27 25 23 22 20 18 18 16 15 16 16 15 17 19 20 20 20 19 18 17 16 15 15 15 15 16 16 17 18 19 20 21 23 25 27
38 36 34 33 32 30 28 27 25 23 22 20 18 16 15 14 13 13 13 12 12 13 15 16 16 17 16 15 14 14 14 14 14 14 15 16 17 18 19 21 23 25 27
38 36 35 33 31 30 28 27 25 22 20 18 16 15 14 13 12 12 11 11 11 11 12 13 14 14 14 13 13 12 12 12 12 13 13 14 15 17 19 21 23 26 28
39 37 35 33 31 30 29 26 24 21 19 17 15 14 13 11 11 11 11 11 10 10 11 12 12 12 12 11 11 11 11 11 11 12 12 14 15 17 19 21 24 26 28
40 38 36 34 32 30 28 25 23 21 18 16 14 13 12 10 9 8 9 9 9 9 9 10 10 10 10 10 10 10 10 10 11 11 13 14 15 17 20 22 24 26 28
41 39 38 35 33 30 27 25 23 20 18 16 14 12 11 10 8 8 8 9 9 9 8 8 9 9 9 9 9 9 10 10 11 12 13 14 16 18 20 22 24 26 28
44 41 39 36 33 30 27 25 23 21 19 17 15 13 12 10 9 9 9 9 10 10 10 9 9 9 9 9 9 9 10 11 11 12 13 15 16 18 20 22 24 26 27
45 42 38 35 34 31 29 26 24 22 20 17 16 14 13 12 11 11 11 11 11 10 10 10 10 10 10 10 10 10 11 11 12 13 14 15 17 18 20 22 24 26 28
46 42 39 37 35 32 30 28 25 24 21 19 18 16 15 14 13 12 12 12 12 12 11 11 11 11 11 11 11 11 11 12 12 13 15 16 17 19 20 22 24 26 27
47 43 40 38 35 33 31 29 27 25 23 21 20 18 17 15 14 14 14 14 13 13 13 12 12 12 12 11 11 12 12 13 13 14 16 17 18 19 20 22 24 26 28
44 43 41 38 35 34 33 31 28 27 25 24 22 21 19 18 16 15 15 15 15 14 14 13 13 13 13 12 13 13 13 14 15 15 17 17 17 18 20 22 24 26 28
41 41 40 39 37 35 34 32 30 29 27 25 24 23 21 20 18 17 16 16 15 15 15 14 14 14 14 14 14 14 15 15 16 17 17 17 18 18 20 21 23 26 28
39 39 40 40 39 36 35 34 32 30 28 27 25 24 22 21 19 18 17 17 16 16 15 15 15 15 15 15 15 16 16 17 17 18 18 18 18 18 20 21 23 25 28
37 38 38 38 38 37 35 35 33 31 29 28 26 25 24 22 20 20 19 18 17 16 16 16 16 16 16 16 17 17 17 18 18 19 18 18 18 18 19 21 23 26 28
34 36 36 36 37 37 35 34 33 31 30 28 27 27 25 24 22 21 20 19 18 18 18 17 17 17 18 18 18 18 19 19 19 19 19 18 18 19 20 22 24 27 29
31 34 35 35 36 36 34 34 33 32 30 29 28 27 26 24 23 22 21 20 20 19 19 19 19 19 19 20 20 20 20 20 19 19 19 19 20 20 21 22 24 27 29
30 33 34 34 35 35 34 33 32 31 30 29 28 26 25 24 23 23 22 22 21 20 20 20 20 20 20 20 20 20 20 19 19 19 19 19 19 20 22 23 25 28 30
29 32 34 33 34 34 34 33 31 30 29 28 27 25 24 23 23 22 22 21 21 20 20 20 20 20 20 20 20 20 20 20 19 19 19 19 19 21 22 24 26 28 31
29 31 33 33 33 33 33 33 31 28 27 26 26 25 23 22 21 21 20 20 19 19 19 19 19 19 19 20 19 19 19 19 19 18 19 19 19 21 23 25 27 29 32
29 31 32 32 33 33 32 32 30 28 26 25 25 24 23 21 20 19 19 18 18 18 18 18 18 18 18 18 18 18 18 18 18 18 18 19 20 22 24 27 29 31 33
Wind_Direction
310 305 301 296 292 290 288 286 285 285 286 286 286 286 286 286 283 281 277 275 271 267 263 260 259 258 257 255 253 252 252 252 250 249 247 247 250 252 254 257 259 262 264
312 309 305 301 297 293 291 289 288 287 286 286 287 287 286 284 282 279 276 272 268 262 260 257 253 250 249 250 249 249 251 250 252 249 248 250 252 255 257 260 262 264 266
311 310 308 305 301 297 293 291 290 289 288 288 289 288 287 284 281 278 273 269 264 258 255 252 248 247 246 245 245 248 249 249 246 245 246 249 254 258 261 263 265 268 269
310 309 308 305 302 299 297 294 293 291 290 290 291 290 287 286 281 275 270 262 257 254 250 247 246 245 242 242 246 246 245 243 243 245 249 254 258 261 265 268 271 272 274
308 308 307 306 303 300 298 297 295 294 292 291 293 292 288 286 282 275 268 261 257 253 249 242 238 238 238 242 239 237 238 239 242 248 254 258 262 265 269 272 275 278 279
305 305 304 304 304 300 297 297 296 294 293 293 294 292 290 288 283 276 271 263 255 252 248 242 240 239 239 236 232 233 237 242 247 251 255 259 263 269 274 278 281 283 285
302 301 301 301 301 299 295 295 295 293 293 294 294 292 291 292 283 274 270 260 252 246 242 242 241 239 235 229 230 232 235 241 245 251 257 262 268 273 278 283 286 289 291
296 298 297 297 296 295 293 292 291 291 290 291 291 289 288 287 280 273 265 260 249 242 240 236 235 231 230 228 229 234 238 241 246 253 261 268 273 280 285 291 295 297 298
291 292 292 291 291 290 288 286 286 285 284 283 285 286 283 281 275 266 261 258 253 242 234 230 226 224 225 225 227 231 236 242 249 258 266 274 281 289 296 300 302 304 306
285 286 285 285 286 284 282 280 280 279 278 277 279 281 280 275 272 263 256 252 245 236 229 223 220 220 218 216 220 227 236 246 256 265 274 284 291 298 303 307 310 312 312
278 279 279 279 278 277 274 271 271 271 270 270 272 272 270 268 263 255 247 238 229 222 218 213 210 209 209 213 221 232 244 254 263 274 283 292 299 305 309 313 315 316 316
270 271 272 272 272 269 265 262 262 262 261 259 261 260 257 256 249 240 230 221 213 208 207 205 204 205 211 219 231 244 254 263 273 283 292 299 305 310 314 318 320 321 321
261 262 263 264 263 259 255 253 253 252 252 250 249 248 246 243 237 227 223 219 214 211 211 211 211 215 222 232 242 252 261 269 278 288 298 305 310 315 318 322 324 326 325
254 254 255 255 254 251 247 245 244 243 242 240 239 237 234 229 225 221 219 217 217 217 218 219 221 225 231 239 248 258 267 276 286 295 303 309 314 318 322 326 328 330 329
247 246 246 247 247 244 239 236 235 235 234 233 230 229 226 221 218 217 216 218 219 221 224 225 227 231 238 245 253 263 272 282 291 299 304 309 314 319 325 328 331 332 332
245 241 239 240 238 237 233 228 228 229 229 227 225 225 223 220 218 219 220 220 222 224 226 229 231 236 243 250 259 269 277 285 293 299 303 308 313 320 325 329 332 334 335
241 236 234 233 232 231 227 222 222 222 224 224 222 222 223 222 221 222 223 223 224 226 228 231 234 240 246 253 262 271 279 286 292 297 302 307 312 319 326 331 334 336 337
236 233 230 228 227 224 221 219 218 218 219 220 221 221 221 222 223 224 224 225 226 228 231 234 238 244 250 257 264 271 279 286 290 295 300 304 310 316 323 329 334 337 339
232 229 227 224 223 220 217 216 215 215 215 216 217 219 219 220 223 224 225 226 228 232 235 238 242 248 254 260 266 272 278 284 288 292 297 301 306 312 320 326 331 334 337
228 226 222 218 218 217 214 213 213 212 213 214 216 218 219 220 222 223 226 229 232 235 238 242 246 251 257 262 267 272 277 282 286 290 293 297 301 308 315 322 327 330 333
225 220 216 213 214 212 210 209 209 210 212 215 217 218 219 220 222 225 229 232 235 238 241 244 248 253 258 264 268 272 275 279 283 285 289 292 297 304 310 316 322 327 329
217 213 210 209 208 208 207 206 206 207 209 212 215 217 219 221 224 227 229 233 238 242 244 247 250 255 259 264 268 272 274 277 280 282 285 289 294 300 306 313 319 324 327
209 206 206 206 205 205 205 204 204 205 207 210 214 217 219 221 224 227 233 238 243 245 247 249 253 257 259 263 268 272 272 274 279 282 283 287 292 299 306 312 317 322 325
204 202 201 201 201 203 203 202 202 202 205 208 212 216 219 222 226 230 236 242 245 247 248 251 254 257 260 264 269 271 270 273 277 280 282 286 291 298 305 311 316 320 323
198 197 196 197 197 200 200 198 197 199 203 207 211 215 219 222 226 232 238 242 244 246 248 252 255 258 261 264 267 269 271 274 277 279 282 285 291 298 304 310 315 318 322
196 193 191 192 193 193 193 192 195 197 199 203 206 211 216 220 225 232 238 242 245 246 248 252 254 257 261 264 267 269 272 274 275 279 283 287 292 299 304 309 314 316 319
Height
5771 5766 5762 5758 5755 5752 5749 5746 5744 5742 5740 5738 5736 5734 5732 5730 5727 5725 5723 5722 5722 5722 5723 5725 5728 5731 5733 5736 5738 5740 5742 5745 5747 5749 5751 5753 5754 5756 5757 5758 5759 5760 5760
5763 5758 5753 5749 5745 5742 5739 5736 5734 5731 5729 5727 5725 5722 5720 5718 5716 5714 5713 5711 5711 5711 5713 5714 5717 5720 5723 5726 5729 5732 5735 5737 5740 5742 5743 5745 5746 5748 5749 5750 5751 5751 5752
5755 5750 5745 5740 5737 5733 5730 5727 5724 5722 5719 5717 5714 5712 5709 5707 5705 5704 5703 5703 5703 5703 5704 5705 5708 5711 5715 5718 5721 5724 5727 5730 5732 5734 5735 5737 5739 5741 5742 5742 5743 5743 5743
5746 5741 5737 5732 5728 5725 5721 5718 5715 5713 5710 5708 5705 5702 5700 5698 5696 5696 5695 5696 5697 5698 5698 5699 5701 5704 5708 5711 5714 5717 5720 5723 5725 5727 5729 5731 5732 5733 5734 5734 5735 5735 5734
5738 5733 5729 5725 5721 5717 5714 5711 5708 5705 5702 5700 5697 5695 5693 5691 5689 5689 5689 5689 5691 5692 5693 5695 5696 5698 5701 5705 5708 5711 5714 5717 5719 5721 5723 5724 5725 5726 5727 5727 5727 5726 5725
5730 5725 5721 5717 5713 5709 5706 5703 5701 5698 5696 5693 5691 5689 5687 5685 5684 5683 5683 5684 5685 5686 5688 5690 5692 5694 5697 5700 5702 5706 5709 5711 5713 5715 5717 5718 5719 5719 5720 5719 5719 5718 5716
5720 5716 5713 5709 5705 5702 5699 5697 5694 5692 5690 5688 5686 5684 5683 5681 5679 5679 5678 5679 5679 5681 5683 5685 5687 5689 5692 5695 5698 5701 5703 5706 5708 5710 5711 5712 5713 5713 5713 5712 5711 5709 5707
5710 5707 5704 5701 5698 5695 5692 5690 5688 5686 5685 5683 5682 5680 5679 5677 5676 5675 5675 5675 5675 5677 5679 5681 5683 5685 5688 5691 5694 5697 5699 5701 5703 5705 5706 5706 5707 5706 5706 5705 5703 5701 5698
5700 5697 5695 5692 5690 5688 5686 5684 5682 5681 5680 5678 5677 5676 5675 5673 5673 5672 5672 5672 5673 5674 5676 5678 5680 5682 5685 5688 5691 5693 5695 5697 5699 5700 5701 5701 5701 5700 5699 5697 5695 5692 5689
5688 5686 5684 5683 5681 5680 5678 5677 5676 5675 5674 5673 5673 5672 5671 5670 5670 5670 5670 5670 5671 5672 5673 5675 5677 5680 5682 5685 5687 5690 5692 5693 5695 5695 5696 5696 5695 5693 5692 5690 5687 5683 5679
5675 5674 5673 5672 5671 5670 5670 5670 5670 5669 5669 5668 5668 5668 5667 5667 5667 5667 5667 5668 5669 5670 5672 5673 5675 5678 5680 5683 5685 5687 5688 5690 5690 5691 5691 5690 5689 5687 5685 5682 5679 5676 5672
5660 5661 5661 5661 5661 5661 5661 5661 5662 5663 5663 5663 5664 5664 5664 5664 5665 5665 5665 5666 5667 5669 5671 5672 5674 5676 5679 5681 5682 5684 5685 5686 5686 5686 5685 5684 5683 5681 5678 5675 5672 5668 5664
5644 5646 5647 5648 5649 5650 5651 5653 5654 5656 5657 5658 5659 5660 5661 5661 5662 5663 5664 5665 5666 5668 5670 5671 5673 5675 5676 5678 5679 5681 5681 5682 5682 5681 5680 5679 5677 5675 5672 5669 5665 5661 5657
5625 5629 5632 5634 5637 5639 5641 5643 5646 5648 5650 5652 5654 5655 5657 5658 5659 5660 5661 5663 5664 5666 5668 5669 5671 5673 5674 5675 5676 5677 5678 5678 5677 5676 5675 5674 5672 5670 5667 5663 5659 5655 5650
5605 5611 5616 5620 5623 5627 5630 5633 5637 5641 5643 5646 5648 5650 5652 5654 5655 5657 5659 5660 5662 5664 5665 5667 5668 5670 5671 5672 5673 5673 5673 5673 5672 5671 5670 5669 5667 5664 5661 5657 5654 5649 5645
5586 5593 5600 5605 5610 5614 5619 5623 5628 5632 5636 5639 5642 5644 5647 5649 5651 5653 5655 5657 5659 5661 5662 5664 5665 5666 5667 5668 5669 5669 5669 5668 5668 5667 5666 5664 5662 5659 5656 5653 5649 5645 5640
5569 5576 5583 5590 5596 5602 5608 5613 5618 5623 5628 5632 5635 5638 5641 5644 5647 5649 5651 5653 5655 5657 5658 5660 5661 5662 5663 5664 5664 5664 5664 5664 5663 5662 5661 5659 5657 5654 5651 5648 5644 5640 5635
5553 5561 5568 5576 5583 5590 5597 5603 5609 5614 5620 5624 5628 5632 5635 5638 5641 5644 5646 5649 5651 5652 5654 5655 5657 5658 5659 5659 5660 5660 5659 5659 5658 5657 5655 5654 5652 5649 5647 5643 5640 5635 5631
5539 5547 5555 5564 5572 5579 5586 5593 5600 5606 5612 5617 5621 5625 5629 5632 5636 5639 5641 5644 5646 5647 5649 5651 5652 5653 5654 5654 5655 5654 5654 5653 5653 5652 5650 5649 5647 5644 5642 5639 5635 5631 5627
5528 5535 5544 5552 5561 5569 5577 5584 5591 5598 5604 5610 5615 5619 5623 5627 5630 5633 5636 5638 5641 5642 5644 5645 5647 5648 5648 5649 5649 5649 5649 5648 5647 5646 5645 5643 5641 5639 5637 5634 5630 5626 5622
5518 5526 5534 5543 5552 5560 5568 5576 5583 5590 5597 5603 5608 5613 5617 5621 5624 5627 5630 5633 5635 5637 5638 5640 5641 5642 5643 5643 5643 5643 5643 5642 5641 5640 5639 5637 5636 5634 5632 5629 5626 5622 5617
5511 5518 5526 5535 5544 5552 5560 5568 5575 5583 5590 5596 5601 5606 5610 5615 5618 5622 5624 5627 5629 5631 5633 5634 5635 5636 5637 5637 5637 5637 5636 5636 5635 5634 5633 5632 5630 5628 5626 5623 5620 5617 5612
5505 5512 5520 5528 5537 5546 5554 5562 5569 5577 5583 5589 5594 5599 5604 5608 5612 5615 5618 5621 5623 5625 5626 5628 5629 5630 5630 5630 5630 5630 5630 5629 5629 5628 5627 5626 5624 5622 5620 5618 5615 5611 5607
5499 5507 5515 5523 5531 5540 5549 5557 5564 5571 5578 5583 5589 5593 5598 5602 5606 5609 5612 5614 5616 5618 5620 5621 5622 5623 5623 5623 5623 5623 5623 5623 5622 5622 5621 5620 5618 5617 5614 5611 5608 5605 5601
5494 5502 5510 5518 5527 5536 5544 5552 5560 5567 5573 5579 5583 5588 5592 5596 5600 5603 5606 5608 5610 5612 5613 5615 5616 5616 5617 5617 5617 5617 5616 5616 5616 5615 5615 5614 5612 5610 5608 5605 5602 5598 5594
5491 5498 5507 5515 5524 5532 5540 5548 5556 5563 5569 5574 5579 5583 5587 5591 5594 5597 5600 5602 5604 5606 5607 5608 5609 5610 5610 5610 5610 5610 5610 5610 5610 5609 5609 5607 5606 5604 5601 5598 5595 5591 5587